TimeNZDT,TemperatureF,Dew PointF,Humidity,Sea Level PressureIn,VisibilityMPH,Wind Direction,Wind SpeedMPH,Gust SpeedMPH,PrecipitationIn,Events,Conditions,WindDirDegrees,DateUTC
12:00 AM,50.0,48.2,94,29.95,6.2,NNW,3.5,-,N/A,,Scattered Clouds,330,2012-10-31 11:00:00
1:00 AM,51.8,48.2,88,29.95,6.2,NNW,4.6,-,N/A,,Partly Cloudy,340,2012-10-31 12:00:00
2:00 AM,51.8,48.2,88,29.92,6.2,North,5.8,-,N/A,,Partly Cloudy,360,2012-10-31 13:00:00
3:00 AM,50.0,48.2,94,29.92,6.2,North,4.6,-,N/A,,Partly Cloudy,10,2012-10-31 14:00:00
4:00 AM,48.2,46.4,93,29.89,6.2,NE,4.6,-,N/A,,Partly Cloudy,40,2012-10-31 15:00:00
5:00 AM,50.0,48.2,94,29.86,6.2,ENE,8.1,-,N/A,,Partly Cloudy,60,2012-10-31 16:00:00
6:00 AM,50.0,48.2,94,29.83,6.2,ENE,11.5,-,N/A,,Mostly Cloudy,70,2012-10-31 17:00:00
7:00 AM,51.8,50.0,94,29.83,6.2,ENE,10.4,-,N/A,,Mostly Cloudy,70,2012-10-31 18:00:00
8:00 AM,53.6,50.0,88,29.80,6.2,ENE,12.7,-,N/A,,Mostly Cloudy,70,2012-10-31 19:00:00
9:00 AM,53.6,50.0,88,29.80,6.2,ENE,15.0,-,N/A,,Overcast,70,2012-10-31 20:00:00
10:00 AM,55.4,50.0,82,29.80,6.2,ENE,16.1,-,N/A,,Mostly Cloudy,60,2012-10-31 21:00:00
11:00 AM,55.4,50.0,82,29.77,6.2,ENE,15.0,-,N/A,,Mostly Cloudy,70,2012-10-31 22:00:00
12:00 PM,57.2,51.8,82,29.74,6.2,ENE,15.0,-,N/A,,Mostly Cloudy,70,2012-10-31 23:00:00
1:00 PM,60.8,53.6,77,29.71,6.2,ENE,11.5,-,N/A,,Partly Cloudy,60,2012-11-01 00:00:00
2:00 PM,62.6,53.6,72,29.71,6.2,East,12.7,-,N/A,,Partly Cloudy,80,2012-11-01 01:00:00
3:00 PM,64.4,55.4,73,29.68,-9999.0,ENE,9.2,-,N/A,,Clear,60,2012-11-01 02:00:00
4:00 PM,66.2,55.4,68,29.68,-9999.0,ENE,9.2,-,N/A,,Clear,60,2012-11-01 03:00:00
5:00 PM,66.2,55.4,68,29.68,-9999.0,ENE,9.2,-,N/A,,Clear,60,2012-11-01 04:00:00
6:00 PM,68.0,53.6,60,29.65,-9999.0,NE,9.2,-,N/A,,Clear,50,2012-11-01 05:00:00
7:00 PM,73.4,42.8,33,29.65,-9999.0,WNW,11.5,-,N/A,,Clear,300,2012-11-01 06:00:00
8:00 PM,66.2,46.4,49,29.65,-9999.0,NW,5.8,-,N/A,,Clear,320,2012-11-01 07:00:00
9:00 PM,60.8,51.8,72,29.65,-9999.0,East,3.5,-,N/A,,Clear,90,2012-11-01 08:00:00
10:00 PM,62.6,46.4,55,29.65,-9999.0,NW,1.2,-,N/A,,Clear,320,2012-11-01 09:00:00
11:00 PM,66.2,42.8,43,29.65,-9999.0,NW,8.1,-,N/A,,Clear,310,2012-11-01 10:00:00